Precipitable_Water
0.58 0.49 0.39 0.44 0.34 0.33 0.31 0.34 0.74 0.79 0.89 1.06 1.13 1.06 1.04 1.09 0.96 0.83 1.64 1.76 1.82 1.85 1.85 1.73 1.69 1.59 1.52 1.50 1.47 1.42 1.33 1.17 0.97 0.86 0.75 0.62 0.59 0.61 0.64 0.65 0.65 0.66 0.66 0.64 0.60 0.60 0.62 0.63 0.61
0.36 0.33 0.40 0.41 0.30 0.27 0.31 0.41 0.50 0.84 0.99 1.03 1.01 1.04 0.99 0.95 1.28 1.42 1.57 1.81 1.90 1.86 1.77 1.73 1.68 1.59 1.57 1.54 1.49 1.42 1.23 0.99 0.88 0.75 0.64 0.58 0.61 0.63 0.66 0.67 0.67 0.69 0.70 0.68 0.68 0.70 0.69 0.69 0.69
0.34 0.39 0.38 0.32 0.28 0.27 0.32 0.68 0.74 0.79 0.93 0.96 0.96 1.07 1.04 1.03 1.37 1.44 1.74 1.86 1.85 1.76 1.84 1.76 1.67 1.63 1.61 1.54 1.50 1.33 1.04 0.89 0.79 0.68 0.59 0.61 0.64 0.66 0.67 0.72 0.78 0.78 0.74 0.71 0.69 0.65 0.63 0.63 0.65
0.31 0.37 0.37 0.30 0.28 0.30 0.39 0.75 0.81 0.79 0.86 0.92 0.99 0.91 1.15 1.27 1.29 1.31 1.63 1.83 1.84 1.84 1.88 1.77 1.71 1.66 1.60 1.56 1.43 1.15 0.95 0.84 0.72 0.66 0.61 0.65 0.66 0.68 0.81 0.80 0.78 0.76 0.75 0.73 0.73 0.71 0.67 0.62 0.60
0.33 0.35 0.31 0.30 0.30 0.33 0.36 0.73 0.82 0.77 0.82 0.78 0.84 0.85 0.99 1.31 1.38 1.36 1.60 1.68 1.81 1.86 1.88 1.81 1.74 1.66 1.62 1.50 1.26 1.04 0.90 0.76 0.73 0.66 0.68 0.67 0.73 0.84 0.82 0.79 0.78 0.77 0.76 0.77 0.78 0.76 0.74 0.72 0.68
0.26 0.31 0.26 0.26 0.36 0.46 0.40 0.77 0.78 0.80 0.80 0.83 0.83 0.89 1.05 1.41 1.40 1.57 1.67 1.82 1.88 1.74 1.80 1.80 1.71 1.65 1.57 1.35 1.12 0.97 0.84 0.74 0.69 0.73 0.72 0.83 0.85 0.84 0.81 0.80 0.81 0.82 0.82 0.80 0.80 0.79 0.78 0.77 0.75
0.28 0.22 0.25 0.33 0.48 0.51 0.55 0.77 0.75 0.77 0.80 0.81 0.93 0.84 1.10 1.29 1.55 1.63 1.66 1.70 1.74 1.74 1.73 1.74 1.66 1.59 1.44 1.15 1.05 0.92 0.75 0.70 0.74 0.81 0.92 0.91 0.87 0.86 0.88 0.87 0.88 0.89 0.89 0.88 0.86 0.84 0.82 0.81 0.80
0.33 0.25 0.26 0.42 0.50 0.50 0.71 0.79 0.85 0.80 0.79 1.08 1.11 0.81 0.90 1.17 1.46 1.54 1.63 1.65 1.63 1.63 1.66 1.64 1.58 1.38 1.16 1.13 1.01 0.85 0.70 0.74 0.90 0.94 0.96 0.94 0.92 0.91 0.91 0.94 0.96 0.98 0.96 0.95 0.92 0.88 0.83 0.79 0.77
0.36 0.24 0.26 0.46 0.53 0.55 0.68 0.70 0.90 0.96 0.90 0.98 1.00 1.03 1.05 1.31 1.37 1.34 1.40 1.46 1.49 1.53 1.54 1.39 1.17 1.15 1.16 1.07 0.95 0.78 0.71 0.88 0.97 1.00 1.00 1.01 1.06 1.05 1.05 0.99 0.97 0.97 0.96 0.96 0.94 0.90 0.84 0.80 0.81
0.32 0.27 0.30 0.51 0.63 0.62 0.70 0.70 0.76 0.81 0.88 0.86 0.95 1.05 1.11 1.20 1.15 1.14 1.17 1.19 1.23 1.22 1.13 1.12 1.13 1.10 1.01 0.90 0.83 0.76 0.82 1.03 1.14 1.17 1.16 1.15 1.15 1.13 1.07 0.99 0.95 0.93 0.93 0.95 0.94 0.90 0.86 0.84 0.82
0.32 0.32 0.34 0.40 0.67 0.68 0.57 0.61 0.66 0.62 0.75 0.74 0.69 0.83 0.96 0.99 0.99 1.02 1.03 1.06 1.03 1.01 1.01 1.03 1.00 0.94 0.83 0.81 0.79 0.84 0.95 1.13 1.18 1.21 1.22 1.22 1.22 1.20 1.16 1.04 0.96 0.97 0.95 1.00 0.99 0.96 0.92 0.89 0.84
0.34 0.36 0.41 0.53 0.67 0.58 0.58 0.60 0.60 0.65 0.68 0.65 0.75 0.86 0.78 0.78 0.78 0.85 0.88 0.90 0.89 0.93 0.93 0.91 0.88 0.80 0.78 0.76 0.80 0.90 1.11 1.18 1.23 1.25 1.25 1.22 1.22 1.20 1.15 1.01 1.00 1.01 1.00 0.98 0.97 0.93 0.90 0.88 0.84
0.35 0.38 0.39 0.46 0.58 0.62 0.63 0.57 0.59 0.62 0.65 0.62 0.71 0.76 0.73 0.77 0.78 0.78 0.82 0.85 0.89 0.87 0.89 0.89 0.86 0.79 0.79 0.86 0.97 1.07 1.15 1.26 1.30 1.33 1.38 1.34 1.23 1.15 1.12 1.09 1.07 1.06 1.06 0.99 0.95 0.92 0.89 0.81 0.76
0.40 0.41 0.37 0.41 0.49 0.65 0.56 0.47 0.52 0.53 0.66 0.65 0.69 0.72 0.78 0.78 0.76 0.72 0.75 0.80 0.84 0.91 0.97 0.99 1.00 1.00 1.04 1.07 1.15 1.21 1.23 1.18 1.19 1.23 1.30 1.42 1.28 1.26 1.20 1.12 1.08 1.08 1.06 1.03 0.99 0.91 0.81 0.75 0.74
0.40 0.34 0.35 0.37 0.43 0.52 0.54 0.34 0.30 0.46 0.61 0.67 0.73 0.78 0.83 0.84 0.84 0.74 0.72 0.77 0.84 0.96 1.11 1.15 1.16 1.18 1.25 1.32 1.30 1.24 1.20 1.14 1.15 1.21 1.27 1.37 1.29 1.27 1.20 1.14 1.09 1.07 1.00 0.95 0.88 0.83 0.77 0.71 0.68
0.32 0.30 0.25 0.30 0.37 0.44 0.42 0.22 0.32 0.45 0.55 0.60 0.72 0.75 0.79 0.81 0.82 0.83 0.83 0.80 0.90 1.06 1.19 1.27 1.33 1.34 1.38 1.42 1.40 1.28 1.26 1.23 1.28 1.25 1.25 1.25 1.20 1.19 1.15 1.07 0.97 0.92 0.83 0.78 0.75 0.72 0.66 0.63 0.62
0.27 0.22 0.23 0.26 0.34 0.35 0.27 0.23 0.34 0.48 0.53 0.56 0.67 0.71 0.77 0.78 0.84 0.90 0.89 0.94 1.02 1.13 1.20 1.26 1.34 1.35 1.37 1.39 1.36 1.26 1.25 1.27 1.21 1.20 1.16 1.13 1.10 1.06 0.93 0.86 0.82 0.76 0.72 0.69 0.67 0.65 0.64 0.58 0.56
0.23 0.24 0.21 0.21 0.30 0.28 0.23 0.30 0.35 0.48 0.51 0.53 0.59 0.65 0.69 0.74 0.80 0.90 0.95 1.03 1.12 1.19 1.22 1.27 1.33 1.35 1.46 1.26 1.24 1.18 1.13 1.10 1.10 1.08 1.00 0.94 0.87 0.84 0.77 0.75 0.72 0.70 0.68 0.67 0.67 0.63 0.61 0.56 0.52
0.28 0.28 0.25 0.24 0.29 0.28 0.27 0.33 0.40 0.50 0.54 0.54 0.57 0.60 0.65 0.70 0.83 0.90 0.97 1.03 1.09 1.16 1.20 1.25 1.30 1.38 1.32 1.18 1.08 1.02 0.98 0.98 0.90 0.86 0.81 0.79 0.78 0.75 0.73 0.70 0.72 0.71 0.66 0.65 0.63 0.56 0.47 0.43 0.44
0.28 0.26 0.29 0.33 0.35 0.34 0.33 0.34 0.40 0.45 0.52 0.57 0.57 0.60 0.65 0.72 0.79 0.88 0.97 1.04 1.07 1.13 1.22 1.26 1.29 1.26 1.16 1.07 0.98 0.94 0.90 0.85 0.78 0.77 0.78 0.78 0.75 0.75 0.73 0.72 0.68 0.65 0.57 0.55 0.51 0.44 0.37 0.37 0.40
0.31 0.31 0.32 0.30 0.34 0.37 0.33 0.31 0.35 0.43 0.47 0.52 0.59 0.63 0.68 0.70 0.74 0.82 0.91 1.01 1.11 1.12 1.13 1.11 1.12 1.11 0.97 0.93 0.92 0.86 0.84 0.78 0.75 0.77 0.76 0.76 0.76 0.73 0.70 0.66 0.59 0.49 0.43 0.38 0.42 0.41 0.38 0.33 0.31
0.30 0.36 0.33 0.32 0.30 0.27 0.34 0.24 0.32 0.40 0.42 0.45 0.49 0.54 0.59 0.69 0.81 0.87 0.88 0.89 0.96 1.04 1.11 1.01 0.94 0.87 0.86 0.83 0.79 0.78 0.76 0.75 0.76 0.75 0.76 0.72 0.70 0.64 0.57 0.50 0.47 0.45 0.42 0.41 0.41 0.38 0.39 0.36 0.29
0.34 0.37 0.33 0.29 0.29 0.28 0.28 0.22 0.34 0.41 0.38 0.43 0.52 0.60 0.70 0.77 0.76 0.74 0.78 0.86 0.92 0.97 0.91 0.84 0.79 0.77 0.79 0.82 0.84 0.80 0.78 0.77 0.73 0.70 0.63 0.61 0.57 0.55 0.53 0.49 0.47 0.46 0.47 0.44 0.40 0.39 0.39 0.38 0.35
0.37 0.35 0.37 0.35 0.32 0.22 0.27 0.23 0.22 0.31 0.34 0.45 0.54 0.61 0.70 0.71 0.69 0.70 0.75 0.76 0.79 0.84 0.80 0.76 0.74 0.75 0.79 0.81 0.81 0.78 0.69 0.62 0.58 0.59 0.56 0.50 0.52 0.54 0.54 0.55 0.50 0.47 0.42 0.41 0.42 0.44 0.43 0.41 0.35
0.37 0.32 0.22 0.21 0.19 0.16 0.25 0.19 0.18 0.30 0.36 0.46 0.50 0.59 0.66 0.67 0.66 0.66 0.66 0.68 0.73 0.73 0.75 0.75 0.74 0.76 0.79 0.76 0.70 0.64 0.64 0.65 0.58 0.54 0.50 0.50 0.44 0.41 0.39 0.39 0.37 0.40 0.43 0.43 0.46 0.43 0.41 0.39 0.34
0.32 0.31 0.21 0.12 0.14 0.17 0.25 0.17 0.25 0.34 0.41 0.54 0.60 0.62 0.65 0.64 0.65 0.63 0.66 0.71 0.74 0.73 0.75 0.75 0.76 0.72 0.70 0.65 0.67 0.72 0.73 0.62 0.56 0.48 0.43 0.40 0.37 0.34 0.33 0.33 0.36 0.41 0.45 0.45 0.44 0.43 0.41 0.41 0.39
0.29 0.23 0.31 0.21 0.23 0.18 0.20 0.25 0.31 0.36 0.37 0.49 0.54 0.56 0.57 0.60 0.62 0.64 0.69 0.72 0.73 0.71 0.74 0.75 0.70 0.68 0.69 0.72 0.71 0.71 0.65 0.54 0.46 0.45 0.44 0.37 0.34 0.33 0.33 0.34 0.36 0.41 0.46 0.47 0.43 0.40 0.40 0.42 0.39
0.30 0.32 0.20 0.23 0.15 0.12 0.16 0.15 0.17 0.24 0.28 0.39 0.46 0.48 0.53 0.57 0.61 0.65 0.69 0.71 0.71 0.73 0.75 0.73 0.73 0.72 0.68 0.71 0.67 0.60 0.54 0.50 0.46 0.44 0.38 0.34 0.35 0.34 0.32 0.31 0.32 0.36 0.39 0.42 0.41 0.38 0.40 0.40 0.36
0.28 0.25 0.24 0.25 0.21 0.12 0.09 0.11 0.19 0.21 0.28 0.32 0.41 0.47 0.51 0.55 0.60 0.65 0.68 0.70 0.72 0.73 0.72 0.74 0.71 0.69 0.67 0.68 0.61 0.54 0.50 0.46 0.45 0.40 0.36 0.36 0.36 0.35 0.33 0.33 0.32 0.34 0.37 0.38 0.37 0.38 0.41 0.36 0.33
0.31 0.28 0.25 0.16 0.14 0.16 0.14 0.10 0.19 0.23 0.28 0.34 0.40 0.47 0.53 0.58 0.61 0.65 0.67 0.68 0.69 0.70 0.71 0.70 0.66 0.67 0.70 0.65 0.52 0.50 0.46 0.45 0.41 0.37 0.37 0.39 0.38 0.36 0.33 0.35 0.35 0.35 0.36 0.39 0.43 0.39 0.33 0.33 0.33
Wind_Speed
15 14 13 12 13 14 16 14 11 13 9 7 7 10 11 12 14 15 15 16 19 18 18 19 15 13 11 8 5 4 3 2 2 1 0 2 3 3 4 5 6 6 7 8 9 10 10 11 11
14 13 12 11 13 14 13 13 14 10 11 10 7 9 8 9 11 13 15 18 19 18 18 20 16 13 11 8 6 4 3 3 2 2 2 3 2 2 3 4 6 7 8 8 10 11 11 12 12
14 13 12 11 13 14 10 9 11 10 9 8 11 8 10 10 11 13 14 18 19 20 21 19 17 13 10 8 6 5 4 3 4 4 4 3 2 2 3 4 6 7 7 9 10 11 12 12 12
14 13 13 14 13 8 9 12 12 10 9 11 10 11 12 11 15 12 16 16 19 22 21 19 16 13 10 8 7 5 5 5 5 5 4 3 2 2 3 4 5 6 7 9 10 11 12 13 13
14 13 13 13 11 10 12 14 14 11 8 10 12 11 9 11 11 14 16 16 19 20 17 16 14 12 10 8 7 6 6 5 6 5 4 3 1 2 3 4 5 6 7 9 10 11 12 13 14
14 13 12 14 10 10 12 13 12 11 8 8 9 8 8 10 12 12 14 17 20 16 15 14 13 11 9 8 7 7 7 7 7 5 4 3 1 1 2 4 5 6 7 9 10 11 12 13 14
13 14 12 10 8 7 9 12 13 8 7 5 6 7 7 9 11 12 14 15 16 12 13 12 12 11 9 8 8 7 8 8 7 6 4 3 1 1 3 5 6 7 8 10 10 11 12 14 15
12 12 12 11 8 4 7 9 8 8 8 5 6 5 7 9 11 12 14 15 13 13 11 11 11 10 9 9 8 9 8 8 7 6 5 3 3 4 5 6 8 9 9 11 11 13 14 15 16
12 13 12 11 10 6 8 9 11 9 8 7 5 3 5 12 12 13 13 13 12 12 11 11 10 10 9 9 9 9 8 8 8 6 6 5 6 7 9 9 10 11 11 13 14 14 16 17 18
14 12 12 11 9 9 9 8 11 10 8 6 5 3 10 13 13 12 12 13 12 11 10 10 9 9 9 9 9 9 9 8 8 8 8 9 9 10 11 12 13 13 14 15 15 17 19 20 21
13 10 8 12 12 7 7 12 14 7 7 8 6 11 13 14 13 12 12 12 11 11 9 9 9 9 9 9 9 8 8 9 9 10 11 12 12 13 13 14 15 15 17 17 18 20 21 23 24
12 10 8 9 11 8 8 9 9 9 1 3 7 13 15 14 13 12 12 11 11 10 9 9 9 8 8 8 8 8 8 9 10 11 13 14 14 14 14 15 16 17 19 20 21 22 24 25 26
12 8 7 9 12 11 8 9 6 7 3 6 12 14 14 13 12 11 11 11 11 10 10 9 8 8 8 8 8 8 9 10 11 12 13 15 16 16 16 16 17 19 20 22 24 26 27 29 29
9 9 7 9 12 12 10 7 7 5 6 10 12 14 13 12 11 10 11 11 10 10 8 7 7 7 8 8 8 8 9 11 13 13 13 15 14 15 16 18 20 22 24 27 29 30 31 31 31
10 9 7 9 12 10 9 8 5 4 9 11 12 12 12 11 10 9 10 10 9 8 7 7 7 8 8 9 9 9 11 9 13 18 24 20 18 18 18 20 23 26 28 31 30 32 32 33 33
11 9 8 6 9 10 10 10 5 6 10 11 11 10 11 10 9 8 8 8 9 8 8 8 8 9 10 11 12 14 17 21 18 16 16 14 16 18 21 25 27 29 29 30 31 32 33 34 35
10 9 8 8 6 11 8 9 5 7 11 11 11 10 10 9 8 7 7 8 9 9 10 10 11 12 14 14 15 18 19 17 16 16 15 16 18 20 24 26 28 29 30 31 32 34 35 37 38
10 6 8 9 7 10 9 7 7 8 11 11 11 10 10 9 8 7 8 8 9 10 11 12 13 14 14 17 17 16 15 14 14 16 17 19 20 23 25 27 29 30 32 33 35 36 38 39 40
7 7 10 7 8 8 8 8 6 7 11 11 12 11 11 10 9 9 10 10 11 12 12 13 13 14 15 16 14 14 15 15 16 17 19 21 23 25 27 29 30 32 35 36 37 38 40 40 41
8 9 8 6 8 8 10 7 5 6 8 11 12 12 12 11 10 10 11 11 12 12 12 13 13 14 13 13 13 15 15 16 18 20 21 23 25 27 29 31 33 36 36 38 38 40 41 41 42
6 8 10 8 10 7 11 9 9 7 7 10 12 11 11 11 11 11 10 10 9 9 9 10 10 11 12 13 14 14 15 17 19 21 24 25 27 30 32 34 36 38 38 39 40 41 42 42 43
7 6 10 9 12 10 11 9 10 9 9 9 11 12 11 11 10 9 8 7 7 8 8 8 9 9 9 10 12 14 16 18 21 23 26 28 30 33 35 37 38 39 40 40 41 41 42 44 45
5 8 9 8 8 8 11 11 6 10 12 12 12 12 12 11 10 9 8 7 6 6 6 5 6 7 9 11 13 15 17 20 24 26 29 31 33 35 37 39 40 41 41 41 42 43 45 45 47
9 8 6 7 8 11 10 12 11 12 15 14 14 14 13 12 11 9 8 6 5 5 6 6 7 8 10 12 15 17 21 23 26 28 30 32 35 37 38 40 41 42 42 42 43 46 46 48 48
9 9 7 8 9 11 7 12 16 12 12 15 15 14 14 13 12 10 9 8 7 7 8 8 9 11 13 15 18 20 24 24 28 31 33 35 37 38 39 41 42 43 43 43 46 46 48 48 48
10 10 9 8 8 7 7 9 6 6 9 12 14 13 14 13 12 11 11 10 9 10 10 11 12 13 15 18 21 24 26 28 30 32 35 37 37 38 40 42 43 44 44 45 47 47 48 48 47
8 10 7 7 6 8 8 6 8 6 7 11 14 14 14 14 13 13 12 12 12 12 13 14 15 16 19 22 24 26 28 30 32 34 37 37 37 39 41 43 45 45 45 46 47 48 49 47 45
9 7 7 8 6 6 5 6 5 5 8 10 14 15 15 15 15 14 14 14 15 15 16 17 18 20 22 24 26 27 29 31 34 36 37 37 38 40 43 45 46 47 47 48 48 48 47 44 40
9 9 7 6 6 5 4 3 3 4 8 11 14 15 16 17 17 17 17 17 17 18 18 20 21 23 25 27 28 30 31 33 35 37 37 37 39 42 44 46 47 48 48 48 48 47 45 40 36
9 10 11 8 7 6 6 7 5 5 7 11 13 16 17 18 19 19 19 20 20 21 21 22 24 25 28 28 31 31 33 35 37 37 38 39 41 44 46 47 48 48 48 48 47 44 38 35 33
Wind_Direction
234 240 244 246 253 251 250 242 241 228 237 240 243 230 233 248 242 241 223 213 198 198 198 188 190 191 191 195 205 219 226 231 230 227 188 105 92 67 48 39 32 23 17 11 7 3 359 354 350
232 233 236 248 255 252 241 247 229 222 212 224 240 246 242 235 239 222 217 203 196 198 192 189 189 190 192 201 213 219 225 223 209 188 148 130 107 66 43 32 21 14 7 5 3 359 354 349 345
230 230 237 246 253 255 248 218 193 195 209 228 235 243 242 238 224 221 212 201 205 202 189 187 188 193 199 205 211 216 216 207 190 168 152 140 111 64 35 19 10 7 7 7 4 3 1 357 354
227 227 236 244 255 247 245 204 201 204 233 243 229 244 246 240 222 218 208 205 195 188 186 185 189 195 203 209 208 209 200 187 175 164 159 148 114 53 24 15 12 13 10 6 5 4 4 3 1
224 230 235 241 245 249 241 210 212 228 242 236 238 227 230 212 210 200 203 199 180 170 174 183 191 197 202 199 202 199 191 182 172 168 165 154 123 43 18 15 11 7 6 1 357 356 357 357 356
221 231 232 238 238 240 230 207 228 229 239 227 218 206 227 212 205 199 192 187 188 172 187 192 195 199 199 195 197 193 186 181 176 176 171 167 143 11 5 0 357 355 353 350 351 350 349 350 349
228 225 236 232 226 227 221 214 223 216 206 216 191 208 219 205 201 192 186 183 193 187 185 192 198 200 200 198 197 192 188 184 185 182 185 192 213 308 331 333 336 336 337 339 341 343 341 340 341
222 226 220 225 205 210 200 212 202 214 234 207 213 226 226 193 183 187 185 190 188 186 187 192 195 198 201 202 197 191 192 192 193 196 204 230 264 288 303 312 317 319 322 328 330 332 334 334 335
218 224 221 214 208 188 189 205 217 212 211 215 205 225 183 171 169 170 174 178 178 183 186 188 191 196 200 197 196 197 199 203 203 213 230 253 276 285 291 297 299 311 317 317 320 322 324 325 326
215 228 225 216 202 200 217 227 207 211 202 202 194 184 157 161 162 163 166 171 177 178 182 186 189 192 193 196 197 203 208 213 223 238 250 266 276 282 288 291 290 297 308 310 312 315 315 317 317
207 221 219 213 205 212 192 158 161 187 217 211 219 173 162 159 160 161 163 167 171 175 180 185 189 192 196 201 205 211 217 227 240 253 262 269 275 282 287 292 291 292 300 303 305 308 309 310 311
206 218 205 189 198 192 175 179 193 202 157 198 172 164 161 162 164 164 168 173 174 179 181 185 191 195 201 207 213 218 230 243 253 260 270 274 277 280 285 290 292 293 296 299 303 305 304 306 306
206 202 206 212 194 189 189 187 187 175 171 145 153 159 165 164 167 168 171 172 172 174 174 179 188 196 206 213 221 230 243 256 265 269 277 279 278 279 283 286 292 293 296 301 302 304 304 305 303
190 208 205 178 179 184 185 168 176 153 160 144 151 159 163 163 164 164 169 171 173 175 182 193 203 209 216 221 227 239 256 270 273 269 288 280 282 280 280 288 295 294 297 298 299 302 302 302 301
184 169 162 165 182 181 185 168 153 165 159 150 147 150 156 161 164 167 173 177 181 188 198 211 219 225 229 231 238 246 264 297 296 278 276 279 281 282 286 292 294 299 297 298 299 301 301 301 300
180 185 175 171 178 183 193 166 164 164 170 162 158 156 161 166 172 176 186 196 204 212 222 232 238 242 246 247 248 265 276 283 290 288 292 281 287 289 291 296 300 300 300 301 300 300 300 301 300
182 184 185 174 180 176 197 169 174 175 175 175 173 172 175 175 181 192 203 212 221 231 238 245 250 257 257 264 281 286 288 291 291 292 293 295 294 297 299 301 302 303 302 302 301 301 301 301 300
180 169 179 171 174 185 181 165 174 184 187 188 189 191 195 200 208 220 228 234 240 246 251 254 261 265 261 283 289 291 292 296 297 297 299 300 300 302 303 303 304 303 303 303 302 301 300 301 300
186 179 164 156 172 176 177 176 188 200 200 202 205 207 213 220 230 237 243 247 251 254 255 260 265 264 275 282 283 290 294 298 300 301 303 303 304 304 305 305 305 305 304 303 302 302 302 302 301
188 184 177 174 179 199 188 187 195 202 208 217 216 219 223 231 238 244 248 253 255 253 255 260 264 270 274 281 288 294 297 299 300 303 305 305 306 306 307 307 307 307 306 305 304 304 303 302 302
191 202 192 202 192 201 198 209 213 219 223 223 226 228 231 237 240 243 243 243 245 248 255 265 263 270 277 284 291 297 302 304 305 307 307 307 307 307 307 307 307 307 307 306 305 304 304 303 302
192 207 189 172 192 213 214 231 220 227 232 229 225 226 230 231 231 227 227 231 242 256 264 268 272 275 283 289 296 300 306 307 309 309 308 308 307 307 307 308 308 308 307 306 305 305 305 304 304
200 192 186 202 220 229 220 248 226 230 235 230 223 220 221 223 220 217 220 236 247 253 259 265 271 283 289 296 301 305 309 311 310 310 308 308 308 308 308 308 308 308 307 306 306 306 306 305 305
176 186 204 230 243 247 247 255 244 237 241 228 221 221 219 215 214 217 225 227 238 255 263 273 283 291 296 302 305 307 310 311 313 313 310 309 309 309 309 309 309 308 307 307 307 307 306 306 305
219 211 237 242 241 256 254 258 260 257 251 225 214 212 212 212 213 216 218 231 246 255 270 278 286 293 299 303 307 308 310 310 313 314 313 312 311 311 310 311 310 309 308 308 308 308 307 305 304
222 238 244 254 250 260 251 253 257 244 235 219 211 207 207 210 216 221 228 243 256 262 271 279 285 293 299 304 305 307 309 309 312 314 315 313 312 312 313 313 313 311 308 308 309 308 308 306 304
221 232 246 244 257 260 251 248 247 245 220 211 207 209 211 217 223 230 240 252 261 266 272 280 286 293 298 304 304 305 308 310 311 312 315 315 314 314 315 315 314 312 310 309 309 309 308 305 303
241 211 230 231 236 240 223 256 253 225 219 218 215 218 222 228 233 241 250 258 264 269 274 281 288 292 298 301 305 307 309 310 311 313 314 314 315 316 316 316 316 314 311 310 308 309 308 305 302
219 222 223 226 236 241 262 252 272 273 236 230 230 230 233 238 243 249 256 262 266 271 275 282 288 293 297 299 304 307 308 310 311 313 313 314 315 317 317 317 317 315 313 312 310 309 307 304 301
229 222 217 229 219 238 263 274 259 275 271 251 245 244 246 249 251 255 259 264 268 271 276 283 288 294 297 298 302 305 308 310 311 312 313 313 315 317 318 318 318 317 316 314 311 309 307 304 302